When you browse on this site, cookies collect data to enhance your experience and personalize the content and advertising you see.
Visit our Privacy Policy to learn more. By continuing to use the site, you agree to this use of cookies and data.
  • In Hungary
  • List of Countries
  • For 7 days
  • Water Temperature
  • Weather Map
  • News
  • Weather Widgets
  • user-avatar
    Login

    Hourly Weather Ondjiwa

    Today, 27 February, Thursday

    Time Temperature Precipitation Wind Pressure Humidity
    00:00 +24°C° 0.1 mm 2 mps 666 mmHg 83%
    01:00 +23°C° 0.1 mm 1 mps 666 mmHg 86%
    02:00 +23°C° 0.8 mm 1 mps 665 mmHg 88%
    03:00 +22°C° 0.8 mm 1 mps 665 mmHg 89%
    04:00 +22°C° 0.8 mm 1 mps 665 mmHg 90%
    05:00 +21°C° 0.3 mm 2 mps 665 mmHg 89%
    06:00 +23°C° 0.3 mm 2 mps 666 mmHg 88%
    07:00 +23°C° 0.3 mm 2 mps 666 mmHg 87%
    08:00 +24°C° 0 mm 2 mps 667 mmHg 80%
    09:00 +26°C° 0 mm 1 mps 667 mmHg 73%
    10:00 +27°C° 0 mm 1 mps 667 mmHg 66%
    11:00 +29°C° 0.1 mm 2 mps 667 mmHg 60%
    12:00 +30°C° 0.1 mm 2 mps 667 mmHg 53%
    13:00 +33°C° 0.1 mm 3 mps 666 mmHg 46%
    14:00 +33°C° 0.1 mm 3 mps 666 mmHg 46%
    15:00 +33°C° 0.1 mm 3 mps 665 mmHg 46%
    16:00 +33°C° 0.1 mm 3 mps 665 mmHg 46%
    17:00 +31°C° 0 mm 3 mps 665 mmHg 50%
    18:00 +29°C° 0 mm 2 mps 665 mmHg 54%
    19:00 +28°C° 0 mm 2 mps 665 mmHg 58%
    20:00 +27°C° 0.2 mm 2 mps 665 mmHg 65%
    21:00 +26°C° 0.2 mm 2 mps 665 mmHg 72%
    22:00 +24°C° 0.2 mm 2 mps 666 mmHg 79%
    23:00 +24°C° 1.9 mm 2 mps 665 mmHg 82%

    Tomorrow, 28 February, Friday

    Time Temperature Precipitation Wind Pressure Humidity
    00:00 +23°C° 1.9 mm 1 mps 665 mmHg 85%
    01:00 +23°C° 1.9 mm 1 mps 665 mmHg 89%
    02:00 +23°C° 0.8 mm 1 mps 665 mmHg 88%
    03:00 +23°C° 0.8 mm 1 mps 664 mmHg 88%
    04:00 +23°C° 0.8 mm 2 mps 664 mmHg 88%
    05:00 +23°C° 0.4 mm 2 mps 665 mmHg 86%
    06:00 +23°C° 0.4 mm 1 mps 665 mmHg 85%
    07:00 +23°C° 0.4 mm 1 mps 666 mmHg 84%
    08:00 +24°C° 0.8 mm 2 mps 666 mmHg 81%
    09:00 +25°C° 0.8 mm 2 mps 666 mmHg 79%
    10:00 +26°C° 0.8 mm 2 mps 666 mmHg 76%
    11:00 +26°C° 0.2 mm 3 mps 666 mmHg 73%
    12:00 +27°C° 0.2 mm 3 mps 666 mmHg 69%
    13:00 +28°C° 0.2 mm 3 mps 665 mmHg 66%
    14:00 +28°C° 0.1 mm 3 mps 664 mmHg 66%
    15:00 +28°C° 0.1 mm 3 mps 664 mmHg 66%
    16:00 +27°C° 0.1 mm 3 mps 663 mmHg 66%
    17:00 +27°C° 0 mm 3 mps 663 mmHg 69%
    18:00 +26°C° 0 mm 3 mps 664 mmHg 72%
    19:00 +25°C° 0 mm 3 mps 664 mmHg 75%
    20:00 +24°C° 0.3 mm 3 mps 664 mmHg 76%
    21:00 +24°C° 0.3 mm 3 mps 665 mmHg 77%
    22:00 +24°C° 0.3 mm 3 mps 665 mmHg 78%
    23:00 +24°C° 1.6 mm 3 mps 665 mmHg 81%

    Day after tomorrow, 29 February, Saturday

    Time Temperature Precipitation Wind Pressure Humidity
    00:00 +23°C° 1.6 mm 2 mps 665 mmHg 84%
    01:00 +23°C° 1.6 mm 2 mps 664 mmHg 88%
    02:00 +23°C° 0.6 mm 2 mps 664 mmHg 87%
    03:00 +21°C° 0.6 mm 2 mps 664 mmHg 86%
    04:00 +21°C° 0.6 mm 2 mps 664 mmHg 86%
    05:00 +21°C° 0.1 mm 2 mps 665 mmHg 84%
    06:00 +21°C° 0.1 mm 2 mps 665 mmHg 83%
    07:00 +20°C° 0.1 mm 2 mps 665 mmHg 81%
    08:00 +21°C° 0 mm 2 mps 665 mmHg 79%
    09:00 +21°C° 0 mm 3 mps 666 mmHg 76%
    10:00 +21°C° 0 mm 3 mps 666 mmHg 74%
    11:00 +21°C° 0.1 mm 3 mps 666 mmHg 72%
    12:00 +22°C° 0.1 mm 3 mps 665 mmHg 70%
    13:00 +22°C° 0.1 mm 4 mps 665 mmHg 69%
    14:00 +22°C° 0 mm 3 mps 665 mmHg 67%
    15:00 +22°C° 0 mm 3 mps 664 mmHg 66%
    16:00 +24°C° 0 mm 2 mps 664 mmHg 65%
    17:00 +23°C° 0 mm 2 mps 664 mmHg 62%
    18:00 +23°C° 0 mm 2 mps 665 mmHg 60%
    19:00 +23°C° 0 mm 2 mps 665 mmHg 57%
    20:00 +23°C° 0 mm 2 mps 665 mmHg 56%
    21:00 +23°C° 0 mm 2 mps 666 mmHg 55%
    22:00 +23°C° 0 mm 2 mps 666 mmHg 54%
    23:00 +23°C° 0 mm 2 mps 666 mmHg 54%

    1 March, Sunday

    Time Temperature Precipitation Wind Pressure Humidity
    00:00 +21°C° 0 mm 2 mps 666 mmHg 55%
    01:00 +22°C° 0 mm 1 mps 666 mmHg 55%
    02:00 +20°C° 0 mm 2 mps 666 mmHg 55%
    03:00 +20°C° 0 mm 2 mps 665 mmHg 56%
    04:00 +19°C° 0 mm 2 mps 665 mmHg 56%
    05:00 +19°C° 0 mm 2 mps 665 mmHg 59%
    06:00 +19°C° 0 mm 3 mps 666 mmHg 61%
    07:00 +19°C° 0 mm 3 mps 666 mmHg 64%
    08:00 +21°C° 0 mm 3 mps 667 mmHg 57%
    09:00 +22°C° 0 mm 3 mps 667 mmHg 51%
    10:00 +25°C° 0 mm 4 mps 668 mmHg 45%
    11:00 +26°C° 0 mm 4 mps 668 mmHg 39%
    12:00 +28°C° 0 mm 4 mps 667 mmHg 34%
    13:00 +29°C° 0 mm 5 mps 667 mmHg 29%
    14:00 +30°C° 0 mm 5 mps 666 mmHg 26%
    15:00 +32°C° 0 mm 5 mps 666 mmHg 23%
    16:00 +33°C° 0 mm 5 mps 665 mmHg 21%
    17:00 +29°C° 0 mm 4 mps 665 mmHg 25%
    18:00 +27°C° 0 mm 3 mps 665 mmHg 29%
    19:00 +25°C° 0 mm 2 mps 665 mmHg 33%
    20:00 +24°C° 0 mm 2 mps 665 mmHg 35%
    21:00 +22°C° 0 mm 3 mps 666 mmHg 38%
    22:00 +21°C° 0 mm 3 mps 666 mmHg 40%
    23:00 +20°C° 0 mm 3 mps 666 mmHg 45%

    2 March, Monday

    Time Temperature Precipitation Wind Pressure Humidity
    00:00 +19°C° 0 mm 2 mps 666 mmHg 50%
    01:00 +19°C° 0 mm 2 mps 666 mmHg 54%
    02:00 +18°C° 0 mm 2 mps 666 mmHg 57%
    03:00 +18°C° 0 mm 2 mps 666 mmHg 59%
    04:00 +18°C° 0 mm 1 mps 666 mmHg 61%
    05:00 +19°C° 0 mm 1 mps 666 mmHg 62%
    06:00 +19°C° 0 mm 1 mps 666 mmHg 62%
    07:00 +19°C° 0 mm 1 mps 666 mmHg 63%
    08:00 +21°C° 0 mm 2 mps 667 mmHg 52%
    09:00 +24°C° 0 mm 2 mps 667 mmHg 42%
    10:00 +27°C° 0 mm 2 mps 668 mmHg 31%
    11:00 +28°C° 0 mm 3 mps 667 mmHg 27%
    12:00 +30°C° 0 mm 3 mps 667 mmHg 23%
    13:00 +33°C° 0 mm 3 mps 667 mmHg 19%
    14:00 +33°C° 0 mm 3 mps 667 mmHg 18%
    15:00 +33°C° 0 mm 3 mps 666 mmHg 18%
    16:00 +34°C° 0 mm 2 mps 666 mmHg 18%
    17:00 +30°C° 0 mm 2 mps 665 mmHg 22%
    18:00 +28°C° 0 mm 1 mps 665 mmHg 26%
    19:00 +25°C° 0 mm 1 mps 665 mmHg 30%
    20:00 +24°C° 0 mm 1 mps 665 mmHg 32%
    21:00 +23°C° 0 mm 1 mps 666 mmHg 35%
    22:00 +21°C° 0 mm 2 mps 666 mmHg 37%
    23:00 +20°C° 0 mm 2 mps 666 mmHg 38%

    3 March, Tuesday

    Time Temperature Precipitation Wind Pressure Humidity
    00:00 +20°C° 0 mm 2 mps 666 mmHg 40%
    01:00 +19°C° 0 mm 2 mps 665 mmHg 41%
    02:00 +19°C° 0 mm 2 mps 665 mmHg 42%
    03:00 +18°C° 0 mm 2 mps 665 mmHg 43%
    04:00 +18°C° 0 mm 2 mps 665 mmHg 44%
    05:00 +18°C° 0 mm 2 mps 666 mmHg 45%
    06:00 +18°C° 0 mm 2 mps 666 mmHg 47%
    07:00 +18°C° 0 mm 2 mps 666 mmHg 48%
    08:00 +21°C° 0 mm 2 mps 667 mmHg 41%
    09:00 +25°C° 0 mm 2 mps 668 mmHg 33%
    10:00 +28°C° 0 mm 2 mps 668 mmHg 26%
    11:00 +30°C° 0 mm 2 mps 668 mmHg 22%
    12:00 +31°C° 0 mm 2 mps 668 mmHg 18%
    13:00 +34°C° 0 mm 2 mps 667 mmHg 15%
    14:00 +34°C° 0 mm 2 mps 667 mmHg 14%
    15:00 +34°C° 0 mm 2 mps 666 mmHg 14%
    16:00 +35°C° 0 mm 2 mps 666 mmHg 14%
    17:00 +31°C° 0 mm 1 mps 666 mmHg 18%
    18:00 +28°C° 0 mm 1 mps 665 mmHg 21%
    19:00 +26°C° 0 mm 1 mps 665 mmHg 25%
    20:00 +25°C° 0 mm 2 mps 666 mmHg 27%
    21:00 +23°C° 0 mm 2 mps 666 mmHg 29%
    22:00 +21°C° 0 mm 2 mps 666 mmHg 31%
    23:00 +21°C° 0 mm 2 mps 666 mmHg 33%
    Show more